RH
100 100 98 84 72 62 54 64 72 77 71 79 71 61 46 51 54 75 58 68 83 81 81 100 100 100 95 100 100 100 100 100 100
100 100 100 95 85 75 68 73 60 55 58 64 53 50 48 48 75 100 79 60 89 100 82 80 95 90 90 94 87 100 98 92 94
93 100 100 95 90 76 93 86 54 49 52 53 50 46 58 66 93 100 100 78 78 99 100 100 92 91 95 95 97 100 95 80 91
90 100 96 93 94 81 99 100 78 62 58 49 47 69 83 95 100 91 100 97 96 84 82 100 100 92 82 87 100 100 100 95 97
80 85 100 100 86 98 95 100 100 84 79 61 74 100 100 93 94 94 97 100 100 97 100 76 81 90 84 78 100 90 88 83 69
79 98 99 98 78 80 98 100 91 87 86 60 74 100 100 100 100 91 100 100 100 100 100 100 99 96 100 100 100 100 96 83 83
61 72 89 100 95 89 78 92 98 90 88 82 78 83 97 100 100 100 100 100 100 100 100 83 97 85 82 99 97 92 88 88 89
32 41 60 81 100 100 100 99 88 86 97 98 96 94 100 100 100 100 100 100 100 100 100 100 100 100 98 69 63 61 74 89 88
14 14 21 33 66 93 100 100 100 75 65 93 99 95 99 98 100 98 100 100 100 100 98 90 76 74 98 100 100 98 79 78 72
16 15 16 34 31 38 59 86 100 100 100 89 68 73 91 98 100 94 96 92 91 87 81 70 61 59 63 76 92 95 100 100 100
28 32 31 27 51 53 54 100 100 100 100 100 100 62 75 88 74 74 76 77 66 62 70 63 73 62 76 69 89 93 100 100 99
25 26 34 60 88 94 96 99 100 100 100 100 100 100 100 80 100 100 100 99 100 100 100 100 87 99 90 84 85 100 92 100 100
31 30 30 31 43 76 92 93 92 100 100 100 100 100 100 100 100 100 100 100 100 100 95 97 100 100 100 100 99 100 100 100 100
37 37 36 35 36 40 45 64 79 81 93 100 93 100 98 94 90 100 98 93 82 88 99 78 68 48 64 98 100 99 100 99 93
42 43 44 43 44 43 41 43 45 47 51 58 68 74 72 70 71 71 69 64 66 63 65 64 51 40 40 53 80 100 100 100 100
41 41 42 44 46 45 46 47 48 47 47 46 42 41 40 41 41 42 45 45 43 45 46 50 71 91 100 75 63 92 100 100 97
37 38 39 40 41 42 42 43 44 45 46 46 46 46 44 45 42 40 37 34 32 32 31 32 39 56 64 68 68 70 76 78 80
34 34 34 35 35 36 37 38 39 40 41 43 44 44 42 41 41 40 39 38 38 39 41 42 40 38 37 36 38 40 40 37 34
38 36 34 33 33 34 33 33 34 34 36 38 39 40 41 43 44 41 37 35 34 34 34 34 34 36 37 39 40 38 36 37 35
54 51 51 47 41 38 38 36 34 32 32 32 33 35 36 37 39 41 42 42 41 39 37 35 34 34 35 34 33 32 31 33 34
Wind_Speed
36 40 38 44 53 45 44 43 43 45 42 42 46 47 45 44 44 44 42 41 51 45 43 42 41 36 35 31 34 32 30 30 32
38 49 42 44 43 44 47 47 48 47 42 41 40 41 43 43 38 37 41 38 45 48 48 44 42 44 43 41 37 36 35 35 34
48 47 52 47 47 47 46 46 47 45 43 42 44 42 41 36 35 35 42 39 38 41 42 43 44 43 42 41 40 39 38 39 37
44 45 50 55 45 47 48 50 47 40 40 40 38 37 37 37 36 35 34 36 35 39 41 43 46 46 45 45 45 43 44 45 47
40 42 45 46 54 49 48 52 53 48 43 37 34 35 35 39 36 33 35 36 36 40 41 44 41 42 45 48 49 51 52 50 52
46 40 41 47 47 47 49 50 45 41 41 36 37 40 41 38 35 35 33 36 37 38 41 42 35 38 43 44 45 46 45 45 48
42 47 47 46 45 47 47 47 47 45 41 38 38 41 45 44 40 38 37 38 41 43 41 35 35 35 41 44 46 48 49 46 47
41 43 47 50 51 53 52 51 50 49 46 44 47 46 49 47 43 39 39 40 37 39 39 40 41 48 50 49 49 47 47 50 50
39 46 48 49 54 55 53 54 50 46 47 44 47 46 49 49 50 51 44 44 42 42 42 39 42 43 46 51 53 53 53 52 51
32 38 43 49 52 52 53 52 50 42 35 40 42 45 45 48 50 50 47 47 45 45 46 45 46 43 48 48 46 50 54 53 51
21 23 28 41 44 46 44 49 47 51 43 41 41 39 40 38 39 42 44 47 46 46 49 50 50 52 50 48 48 45 48 54 54
20 21 20 22 34 35 36 45 50 48 54 48 46 47 46 48 44 48 48 49 49 51 55 53 52 54 56 54 52 53 51 52 50
21 20 19 19 21 28 38 39 45 46 47 53 53 53 53 54 54 58 52 57 56 59 58 59 60 58 59 59 58 58 57 55 56
26 25 23 21 20 20 22 28 36 43 49 51 56 57 53 53 56 58 58 58 58 55 62 58 61 61 64 66 64 64 62 60 56
31 30 28 27 26 26 25 26 27 29 32 36 41 49 49 48 49 51 52 50 48 47 47 44 41 40 44 52 59 64 66 62 59
37 37 35 34 34 33 32 33 33 33 34 35 36 36 36 37 37 38 41 43 45 45 45 44 40 37 38 42 48 55 58 58 57
43 43 43 42 41 40 40 40 40 39 40 41 40 42 40 40 40 40 40 40 40 40 39 38 38 39 40 42 44 47 49 50 51
49 49 49 49 48 48 47 47 47 47 46 46 47 47 47 46 46 46 46 46 45 44 44 43 43 42 42 42 43 44 46 46 46
53 54 54 55 54 54 54 54 54 54 53 53 53 53 53 52 52 52 51 51 50 50 50 50 50 49 48 48 49 48 48 48 49
57 57 58 58 59 59 59 59 60 60 60 60 60 60 60 58 57 58 57 57 57 57 57 57 57 55 55 54 54 54 53 53 55
Wind_Direction
215 205 212 218 222 218 223 222 229 233 237 239 243 247 248 250 249 250 249 243 236 237 234 236 231 233 240 247 249 248 252 258 258
214 211 212 217 209 215 222 227 230 229 236 241 244 244 247 247 240 241 247 243 236 240 245 249 250 249 251 254 252 251 253 257 257
222 215 219 219 218 215 227 229 230 234 236 239 242 247 247 245 237 236 242 242 239 241 243 247 251 253 256 259 259 259 258 262 262
225 219 224 225 224 225 227 233 234 233 236 240 240 244 243 239 233 239 233 238 234 240 243 242 245 250 253 253 255 256 261 265 265
227 222 219 225 226 230 233 234 235 242 238 237 236 233 238 236 235 232 231 226 229 227 236 242 248 252 253 254 251 253 256 262 265
226 226 220 223 227 226 230 231 233 235 237 235 236 229 229 224 229 233 233 232 231 227 232 240 247 248 251 248 251 253 256 259 262
227 227 227 230 232 238 237 234 235 236 234 236 235 236 229 226 227 233 233 234 234 236 234 235 240 246 249 253 255 253 255 256 257
229 229 231 232 233 238 242 246 242 242 240 239 235 240 230 225 225 232 232 233 232 230 234 230 241 245 250 251 253 256 257 258 259
226 229 230 231 232 234 236 238 242 247 240 235 236 242 232 232 229 231 234 237 240 244 244 258 263 259 251 252 256 259 261 262 263
226 225 229 230 235 234 233 234 235 230 237 244 238 239 239 236 234 235 240 240 246 252 254 262 262 264 261 257 255 258 257 261 263
215 219 226 223 226 233 229 220 223 229 235 223 245 244 240 247 251 245 249 249 251 256 257 268 263 269 269 263 259 259 262 264 265
226 223 220 220 227 226 228 220 225 227 230 227 229 244 248 256 249 254 253 254 254 253 255 257 263 262 265 263 259 260 264 262 263
235 235 234 231 225 226 229 229 227 227 231 232 234 239 243 242 246 244 247 249 256 252 257 261 261 259 258 258 259 259 261 262 263
235 236 236 237 238 237 233 231 233 236 233 234 238 238 242 244 246 243 248 253 256 256 255 259 260 257 254 252 254 257 260 262 263
238 238 238 238 237 237 237 236 235 236 237 238 241 243 243 247 246 245 246 247 248 249 250 254 255 252 251 248 249 251 252 257 260
243 242 241 241 241 240 239 238 237 235 236 239 240 241 241 241 243 246 248 250 252 254 255 254 253 248 245 244 246 248 251 255 258
247 248 246 245 246 245 244 244 243 243 242 243 244 245 246 247 246 246 247 249 251 252 254 256 256 257 257 255 253 252 253 255 257
248 250 251 250 249 248 248 247 247 247 246 247 247 250 250 250 248 249 249 250 251 253 255 257 257 256 254 254 254 255 256 258 259
252 251 252 252 252 252 252 252 252 251 250 249 249 249 250 251 253 253 252 252 252 253 253 254 254 254 255 255 256 257 256 257 257
254 254 255 255 254 254 254 254 254 254 254 253 252 252 253 253 253 254 254 255 254 255 255 254 253 254 255 256 258 257 256 256 258